This demonstration page uses our WeatherBlox Daily Observations layout. Learn more.

Left ArrowRight Arrow

Hourly Observations for June 29, 2021

Temp ( °F °C ) Dew Point ( °F °C ) Humidity (%) Winds ( mph kmh ) Pressure ( in mb ) Visibility ( mi km ) Precip ( " mm )
12:15 am 00:15 Clear 73 23 73 23 100 100 N N/A 30.19 1022 10 16 N/A
12:35 am 00:35 Clear 73 23 73 23 100 100 N N/A 30.19 1022 10 16 N/A
12:55 am 00:55 Clear 73 23 73 23 100 100 N N/A 30.19 1022 10 16 N/A
1:15 am 01:15 Clear 72 22 72 22 100 100 N N/A 30.19 1022 10 16 N/A
1:35 am 01:35 Clear 72 22 72 22 100 100 N N/A 30.19 1022 10 16 N/A
1:55 am 01:55 Clear 72 22 72 22 100 100 N N/A 30.18 1022 10 16 N/A
2:15 am 02:15 Clear 72 22 72 22 100 100 N N/A 30.18 1022 10 16 N/A
2:35 am 02:35 Clear 70 21 70 21 100 100 N N/A 30.18 1022 10 16 N/A
2:55 am 02:55 Clear 70 21 70 21 100 100 N N/A 30.17 1022 10 16 N/A
3:15 am 03:15 Clear 70 21 70 21 100 100 N N/A 30.17 1022 10 16 N/A
3:35 am 03:35 Clear 70 21 70 21 100 100 N N/A 30.17 1022 10 16 N/A
3:55 am 03:55 Clear 70 21 70 21 100 100 N N/A 30.17 1022 10 16 N/A
4:15 am 04:15 Clear 72 22 72 22 100 100 N N/A 30.17 1022 10 16 N/A
4:35 am 04:35 Clear 72 22 72 22 100 100 N N/A 30.17 1022 10 16 N/A
4:55 am 04:55 Clear 72 22 72 22 100 100 N N/A 30.17 1022 10 16 N/A
5:15 am 05:15 Clear 72 22 72 22 100 100 N N/A 30.18 1022 10 16 N/A
5:35 am 05:35 Clear 72 22 72 22 100 100 N N/A 30.18 1022 10 16 N/A
5:55 am 05:55 Clear 72 22 72 22 100 100 N N/A 30.18 1022 10 16 N/A
6:15 am 06:15 Clear 70 21 70 21 100 100 N N/A 30.18 1022 10 16 N/A
6:35 am 06:35 Sunny 70 21 70 21 100 100 N N/A 30.19 1023 10 16 N/A
6:55 am 06:55 Sunny 70 21 70 21 100 100 N N/A 30.19 1023 7 11 N/A
7:15 am 07:15 Sunny 72 22 72 22 100 100 N N/A 30.20 1023 7 11 N/A
7:35 am 07:35 Sunny 73 23 73 23 100 100 N N/A 30.20 1023 10 16 N/A
7:55 am 07:55 Sunny 75 24 75 24 100 100 N N/A 30.20 1023 10 16 N/A
8:15 am 08:15 Sunny 77 25 77 25 100 100 N N/A 30.19 1022 10 16 N/A
8:35 am 08:35 Sunny 77 25 77 25 100 100 N N/A 30.19 1022 10 16 N/A
8:55 am 08:55 Sunny 81 27 79 26 94 94 N N/A 30.19 1022 10 16 N/A
9:15 am 09:15 Sunny 81 27 79 26 94 94 N N/A 30.19 1022 10 16 N/A
9:35 am 09:35 Sunny 82 28 79 26 89 89 N N/A 30.18 1022 10 16 N/A
9:55 am 09:55 Sunny 84 29 79 26 84 84 N N/A 30.17 1022 10 16 N/A
10:15 am 10:15 Sunny 84 29 79 26 84 84 N N/A 30.17 1022 10 16 N/A
10:35 am 10:35 Sunny 86 30 79 26 79 79 N N/A 30.17 1022 10 16 N/A
10:55 am 10:55 Sunny 88 31 79 26 75 75 SW 3 6 30.15 1021 10 16 N/A
11:15 am 11:15 Sunny 88 31 77 25 70 70 N N/A 30.16 1021 10 16 N/A
11:35 am 11:35 Sunny 88 31 77 25 70 70 SW 9 15 30.16 1021 10 16 N/A
11:55 am 11:55 Partly Cloudy 90 32 77 25 67 67 SSW 7 11 30.16 1021 10 16 N/A
12:15 pm 12:15 Partly Cloudy 90 32 77 25 67 67 N N/A 30.15 1021 10 16 N/A
12:35 pm 12:35 Partly Cloudy 88 31 75 24 66 66 SW 8 13 30.15 1021 10 16 N/A
12:55 pm 12:55 Partly Cloudy 88 31 75 24 66 66 N N/A 30.15 1021 10 16 N/A
1:15 pm 13:15 Partly Cloudy 90 32 75 24 63 63 N N/A 30.15 1021 10 16 N/A
1:35 pm 13:35 Partly Cloudy 88 31 77 25 70 70 SW 7 11 30.14 1021 10 16 N/A
1:55 pm 13:55 Partly Cloudy 90 32 77 25 67 67 SSW 6 9 30.13 1020 10 16 N/A
2:15 pm 14:15 Partly Cloudy 91 33 75 24 59 59 SW 8 13 30.13 1020 10 16 N/A
2:35 pm 14:35 Partly Cloudy 91 33 75 24 59 59 S 5 7 30.12 1020 10 16 N/A
2:55 pm 14:55 Mostly Cloudy 90 32 75 24 63 63 N N/A 30.11 1020 10 16 N/A
3:15 pm 15:15 Partly Cloudy 91 33 75 24 59 59 N N/A 30.10 1019 10 16 N/A
3:35 pm 15:35 Partly Cloudy 90 32 73 23 59 59 N N/A 30.10 1019 10 16 N/A
3:55 pm 15:55 Mostly Cloudy 91 33 75 24 59 59 N N/A 30.10 1019 10 16 N/A
4:15 pm 16:15 Partly Cloudy 91 33 75 24 59 59 SSW 8 13 30.09 1019 10 16 N/A
4:35 pm 16:35 Partly Cloudy 91 33 75 24 59 59 SSW 6 9 30.08 1019 10 16 N/A
4:55 pm 16:55 Partly Cloudy 91 33 75 24 59 59 S 8 13 30.08 1019 10 16 N/A
5:15 pm 17:15 Partly Cloudy 91 33 73 23 56 56 S 10 17 30.08 1019 10 16 N/A
5:35 pm 17:35 Partly Cloudy 91 33 75 24 59 59 SW 9 15 30.09 1019 10 16 N/A
5:55 pm 17:55 Partly Cloudy 91 33 73 23 56 56 N N/A 30.09 1019 10 16 N/A
6:15 pm 18:15 Sunny 91 33 75 24 59 59 N N/A 30.08 1019 10 16 N/A
6:35 pm 18:35 Sunny 90 32 75 24 63 63 W 7 11 30.08 1019 10 16 N/A
6:55 pm 18:55 Partly Cloudy 84 29 75 24 74 74 NNW 15 24 30.10 1019 10 16 N/A
7:15 pm 19:15 Partly Cloudy 82 28 77 25 84 84 N 10 17 30.10 1019 10 16 N/A
7:35 pm 19:35 Sunny 81 27 77 25 89 89 NNW 7 11 30.12 1020 10 16 N/A
7:55 pm 19:55 Partly Cloudy 81 27 77 25 89 89 N N/A 30.12 1020 10 16 N/A
8:15 pm 20:15 Mostly Cloudy 79 26 77 25 94 94 N N/A 30.13 1020 10 16 N/A
8:35 pm 20:35 Partly Cloudy 79 26 77 25 94 94 N N/A 30.13 1020 10 16 N/A
8:55 pm 20:55 Partly Cloudy 79 26 77 25 94 94 N N/A 30.14 1021 10 16 N/A
9:15 pm 21:15 Mostly Cloudy 77 25 77 25 100 100 E 3 6 30.14 1021 10 16 N/A
9:35 pm 21:35 Partly Cloudy 77 25 77 25 100 100 N N/A 30.13 1020 10 16 N/A
9:55 pm 21:55 Clear 75 24 75 24 100 100 N N/A 30.14 1021 10 16 N/A
10:15 pm 22:15 Clear 75 24 75 24 100 100 N N/A 30.15 1021 10 16 N/A
10:35 pm 22:35 Clear 75 24 75 24 100 100 ESE 5 7 30.16 1021 10 16 N/A
10:55 pm 22:55 Partly Cloudy 77 25 77 25 100 100 N N/A 30.15 1021 10 16 N/A
11:15 pm 23:15 Partly Cloudy 77 25 77 25 100 100 N N/A 30.15 1021 10 16 N/A
11:35 pm 23:35 Mostly Cloudy 77 25 77 25 100 100 SSE 8 13 30.15 1021 10 16 N/A
11:55 pm 23:55 Partly Cloudy 77 25 77 25 100 100 SSW 3 6 30.15 1021 10 16 N/A

Powered by AerisWeather